Irkutsk, Russia

3:44 AM +08 on September 27, 2017 (GMT +0800)
Irkutsk

Weather History for UIII - September, 2017

Change the Weather History Date:

Thursday, September 14, 2017

  Actual Average Record
Temperature  
Mean Temperature 56 °F -  
Max Temperature 67 °F - - ()
Min Temperature 46 °F - - ()
Degree Days  
Heating Degree Days 8    
Growing Degree Days 6 (Base 50)    
Moisture  
Dew Point 41 °F    
Average Humidity 57    
Maximum Humidity 87    
Minimum Humidity 17    
Precipitation  
Precipitation 0.00 in - - ()
Sea Level Pressure  
Sea Level Pressure 30.10 in    
Wind  
Wind Speed 7 mph ()    
Max Wind Speed 18 mph    
Max Gust Speed -    
Visibility 6.2 miles    
Events      
T = Trace of Precipitation, MM = Missing Value Source: Averaged Metar Reports

Daily Weather History Graph

Daily Weather History Graph

Search for Another Location

Airport or City:

Trip Planner

Search our weather history database for the weather conditions in past years. The results will help you decide how hot, cold, wet, or windy it might be!

Date:

Astronomy

Sep. 14, 2017 Rise Set
Actual Time 6:35 AM +08 7:20 PM +08
Civil Twilight 6:00 AM +08 7:54 PM +08
Nautical Twilight 5:19 AM +08 8:35 PM +08
Astronomical Twilight 4:35 AM +08 9:19 PM +08
Moon No Moon Rise 3:38 PM +08 (9/14)
Length of Visible Light 13h 53m
Length of Day
12h 45m
Last Quarter, 40% of the Moon is Illuminated
Sep 14
Last Quarter
Sep 20
New
Sep 28
First Quarter
Oct 6
Full
Oct 12
Last Quarter

Hourly Weather History & Observations

Time (+08) Temp. Dew Point Humidity Pressure Visibility Wind Dir Wind Speed Gust Speed Precip Events Conditions
12:00 AM 57.2 °F 44.6 °F 63% 29.95 in 6.2 mi NW 17.9 mph - N/A   Scattered Clouds
12:30 AM 57.2 °F 44.6 °F 63% 29.98 in 6.2 mi NW 17.9 mph - N/A   Scattered Clouds
1:00 AM 57.2 °F 44.6 °F 63% 29.98 in 6.2 mi NW 13.4 mph - N/A   Scattered Clouds
1:30 AM 55.4 °F 44.6 °F 67% 30.01 in 6.2 mi WNW 11.2 mph - N/A   Scattered Clouds
2:00 AM 55 °F 46 °F 64% 30.03 in - WNW 4.5 mph - -   Overcast
2:00 AM 55.4 °F 46.4 °F 72% 30.01 in 6.2 mi WNW 8.9 mph - N/A   Scattered Clouds
2:30 AM 53.6 °F 46.4 °F 77% 30.04 in 6.2 mi West 11.2 mph - N/A   Scattered Clouds
3:00 AM 53.6 °F 46.4 °F 77% 30.04 in - WNW 6.7 mph - N/A   Clear
3:30 AM 53.6 °F 48.2 °F 82% 30.06 in - WNW 8.9 mph - N/A   Clear
4:00 AM 51.8 °F 46.4 °F 82% 30.06 in - West 6.7 mph - N/A   Clear
4:30 AM 51.8 °F 46.4 °F 82% 30.06 in - WNW 6.7 mph - N/A   Clear
5:00 AM 51 °F 46 °F 76% 30.11 in - WNW 4.5 mph - -   Overcast
5:00 AM 51.8 °F 46.4 °F 82% 30.09 in - WNW 6.7 mph - N/A   Clear
5:30 AM 48.2 °F 44.6 °F 87% 30.09 in - WNW 6.7 mph - N/A   Clear
6:00 AM 48.2 °F 44.6 °F 87% 30.09 in - NNW 6.7 mph - N/A   Clear
6:30 AM 48.2 °F 44.6 °F 87% 30.09 in - NNW 6.7 mph - N/A   Clear
7:00 AM 48.2 °F 44.6 °F 87% 30.12 in - NNW 6.7 mph - N/A   Clear
7:30 AM 48.2 °F 44.6 °F 87% 30.12 in - Variable 2.2 mph - N/A   Clear
8:00 AM 47 °F 44 °F 83% 30.19 in 31 mi West 2.2 mph - -   Overcast
8:00 AM 48.2 °F 42.8 °F 82% 30.15 in - Variable 2.2 mph - N/A   Clear
8:30 AM 50.0 °F 44.6 °F 82% 30.15 in - WSW 4.5 mph - N/A   Clear
9:00 AM 50.0 °F 44.6 °F 82% 30.15 in - Variable 2.2 mph - N/A   Clear
9:30 AM 53.6 °F 46.4 °F 77% 30.15 in - Variable 2.2 mph - N/A   Clear
10:00 AM 51.8 °F 44.6 °F 76% 30.18 in - SSE 4.5 mph - N/A   Clear
10:30 AM 55.4 °F 44.6 °F 67% 30.18 in - South 4.5 mph - N/A   Clear
11:00 AM 59 °F 42 °F 43% 30.18 in 31 mi SE 2.2 mph - -   Clear
11:00 AM 57.2 °F 44.6 °F 63% 30.18 in - Variable 2.2 mph - N/A   Clear
11:30 AM 59.0 °F 42.8 °F 55% 30.15 in - WNW 4.5 mph - N/A   Clear
12:00 PM 60.8 °F 41.0 °F 48% 30.15 in - WSW 4.5 mph - N/A   Clear
12:30 PM 62.6 °F 41.0 °F 45% 30.15 in - Variable 2.2 mph - N/A   Clear
1:00 PM 64.4 °F 41.0 °F 42% 30.15 in - WNW 4.5 mph - N/A   Clear
1:30 PM 64.4 °F 35.6 °F 34% 30.12 in - WNW 6.7 mph - N/A   Clear
2:00 PM 67 °F 33 °F 17% 30.11 in 31 mi North 4.5 mph - -   Scattered Clouds
2:00 PM 66.2 °F 32.0 °F 28% 30.12 in - NNW 6.7 mph - N/A   Clear
2:30 PM 66.2 °F 33.8 °F 30% 30.12 in - NNW 8.9 mph - N/A   Clear
3:00 PM 66.2 °F 39.2 °F 37% 30.12 in - North 6.7 mph - N/A   Clear
3:30 PM 66.2 °F 39.2 °F 37% 30.09 in - NNW 8.9 mph - N/A   Clear
4:00 PM 66.2 °F 39.2 °F 37% 30.09 in - NW 8.9 mph - N/A   Clear
4:30 PM 66.2 °F 37.4 °F 35% 30.09 in - North 8.9 mph - N/A   Clear
5:00 PM 66 °F 33 °F 18% 30.07 in 31 mi NNW 4.5 mph - -   Partly Cloudy
5:00 PM 66.2 °F 37.4 °F 35% 30.09 in - NNW 4.5 mph - N/A   Clear
5:30 PM 64.4 °F 33.8 °F 32% 30.09 in - North 8.9 mph - N/A   Clear
6:00 PM 60.8 °F 35.6 °F 39% 30.09 in - North 8.9 mph - N/A   Clear
6:30 PM 60.8 °F 35.6 °F 39% 30.09 in - North 6.7 mph - N/A   Clear
7:00 PM 59.0 °F 35.6 °F 42% 30.09 in - North 6.7 mph - N/A   Clear
7:30 PM 57.2 °F 35.6 °F 44% 30.09 in - NNE 6.7 mph - N/A   Clear
8:00 PM 58 °F 35 °F 30% 30.10 in 31 mi NNE 2.2 mph - -   Mostly Cloudy
8:00 PM 55.4 °F 35.6 °F 47% 30.09 in - NE 4.5 mph - N/A   Clear
8:30 PM 55.4 °F 35.6 °F 47% 30.09 in - NNE 4.5 mph - N/A   Clear
9:00 PM 55.4 °F 35.6 °F 47% 30.12 in - NE 4.5 mph - N/A   Clear
9:30 PM 55.4 °F 35.6 °F 47% 30.12 in - NE 4.5 mph - N/A   Clear
10:00 PM 55.4 °F 35.6 °F 47% 30.12 in - NE 4.5 mph - N/A   Clear
10:30 PM 53.6 °F 35.6 °F 51% 30.15 in - North 6.7 mph - N/A   Clear
11:00 PM 55 °F 37 °F 39% 30.18 in - WNW 4.5 mph - -   Mostly Cloudy
11:00 PM 57.2 °F 35.6 °F 44% 30.15 in - NNW 8.9 mph - N/A   Clear
11:30 PM 55.4 °F 35.6 °F 47% 30.15 in - NW 11.2 mph - N/A   Clear